Location: Newark
(44.6028°N, 124.0883°W)
Time: 14:04:13
(UTC+00:00)

A-11 Canister half - Pass Details

Date: 30 October 2019
Orbit: 1514 x 1686 km, 47.2° (Epoch: 17 November)

Event Time Altitude Azimuth Distance (km) Brightness Sun altitude
Exits shadow 12:08:30 52° 288° (WNW) 1,943 9.1 -29.4°
Maximum altitude 12:11:31 89° 200° (SSW) 1,603 8.9 -28.9°
Drops below altitude 10° 12:21:04 10° 111° (ESE) 3,740 11.8 -27.2°
Sets 12:24:04 0° 112° (ESE) 4,703 12.5 -26.6°
